TimePDT,TemperatureF,Dew PointF,Humidity,Sea Level PressureIn,VisibilityMPH,Wind Direction,Wind SpeedMPH,Gust SpeedMPH,PrecipitationIn,Events,Conditions,WindDirDegrees,DateUTC
12:11 AM,42.8,37.4,81,30.17,5.0,SSW,4.6,-,N/A,,Haze,200,2013-03-18 07:11:00
12:28 AM,42.8,37.4,81,30.16,5.0,SSW,5.8,-,N/A,,Haze,200,2013-03-18 07:28:00
12:49 AM,42.8,37.4,81,30.16,4.0,SSW,9.2,-,0.00,Rain,Light Rain,210,2013-03-18 07:49:00
12:53 AM,43.0,37.0,80,30.16,3.0,SW,9.2,-,0.00,Rain,Light Rain,220,2013-03-18 07:53:00
1:53 AM,44.1,37.0,76,30.14,5.0,SW,9.2,18.4,0.01,Rain,Light Rain,220,2013-03-18 08:53:00
2:19 AM,44.6,39.2,81,30.14,1.8,SW,11.5,-,0.01,Rain,Light Rain,230,2013-03-18 09:19:00
2:34 AM,44.6,39.2,81,30.14,3.0,SW,10.4,20.7,0.05,Rain,Light Rain,230,2013-03-18 09:34:00
2:43 AM,44.6,39.2,81,30.14,2.5,WSW,10.4,-,0.06,Rain,Light Rain,240,2013-03-18 09:43:00
2:53 AM,44.1,39.0,82,30.14,2.5,WSW,15.0,24.2,0.07,Rain,Light Rain,250,2013-03-18 09:53:00
3:05 AM,44.6,39.2,81,30.13,2.5,SW,9.2,-,0.02,Rain,Light Rain,220,2013-03-18 10:05:00
3:09 AM,44.6,39.2,81,30.13,2.0,WSW,15.0,20.7,0.03,Rain,Rain,240,2013-03-18 10:09:00
3:29 AM,44.6,39.2,81,30.13,4.0,WSW,19.6,28.8,0.05,Rain,Light Rain,250,2013-03-18 10:29:00
3:41 AM,44.6,39.2,81,30.13,2.5,West,15.0,23.0,0.05,Rain,Light Rain,270,2013-03-18 10:41:00
3:43 AM,44.6,39.2,81,30.13,1.8,West,16.1,23.0,0.06,Rain,Heavy Rain,260,2013-03-18 10:43:00
3:46 AM,44.6,39.2,81,30.13,1.5,West,16.1,21.9,0.09,Rain,Rain,260,2013-03-18 10:46:00
3:53 AM,44.1,39.9,85,30.13,3.0,West,13.8,20.7,0.09,Rain,Light Rain,260,2013-03-18 10:53:00
4:00 AM,44.6,39.2,81,30.14,2.5,WNW,10.4,19.6,0.00,Rain,Light Rain,300,2013-03-18 11:00:00
4:06 AM,42.8,37.4,81,30.14,1.2,West,10.4,-,0.03,Rain,Rain,270,2013-03-18 11:06:00
4:11 AM,42.8,37.4,81,30.14,2.0,West,12.7,-,0.03,Rain,Light Rain,270,2013-03-18 11:11:00
4:19 AM,42.8,37.4,81,30.14,6.0,West,12.7,-,0.03,,Haze,270,2013-03-18 11:19:00
4:53 AM,44.1,39.0,82,30.14,3.0,West,9.2,-,0.04,Rain,Light Rain,280,2013-03-18 11:53:00
5:03 AM,44.6,37.4,76,30.14,5.0,West,10.4,-,0.00,,Haze,280,2013-03-18 12:03:00
5:53 AM,43.0,37.9,82,30.15,4.0,WNW,10.4,19.6,0.00,,Haze,290,2013-03-18 12:53:00
6:05 AM,42.8,37.4,81,30.15,5.0,WNW,6.9,16.1,N/A,,Haze,300,2013-03-18 13:05:00
6:14 AM,42.8,35.6,76,30.15,5.0,WNW,5.8,-,N/A,,Haze,300,2013-03-18 13:14:00
6:53 AM,39.9,35.1,83,30.17,5.0,Calm,Calm,-,N/A,,Haze,0,2013-03-18 13:53:00
7:53 AM,39.0,35.1,86,30.19,3.0,Calm,Calm,-,N/A,,Scattered Clouds,0,2013-03-18 14:53:00
8:53 AM,44.1,35.1,71,30.20,4.0,Calm,Calm,-,N/A,,Haze,0,2013-03-18 15:53:00
9:53 AM,46.0,36.0,68,30.21,4.0,West,4.6,-,N/A,,Haze,280,2013-03-18 16:53:00
10:53 AM,46.0,35.1,66,30.22,4.0,NW,5.8,-,0.00,,Haze,310,2013-03-18 17:53:00
11:42 AM,48.2,35.6,62,30.22,4.0,West,8.1,-,N/A,,Haze,280,2013-03-18 18:42:00
11:53 AM,48.0,35.1,61,30.23,4.0,Variable,5.8,-,N/A,,Haze,0,2013-03-18 18:53:00
12:19 PM,46.4,33.8,62,30.23,4.0,NW,8.1,-,N/A,,Haze,310,2013-03-18 19:19:00
12:53 PM,46.9,35.1,63,30.24,4.0,WNW,8.1,-,N/A,,Haze,300,2013-03-18 19:53:00
1:53 PM,48.9,30.9,50,30.25,4.0,NW,10.4,-,N/A,,Haze,310,2013-03-18 20:53:00
2:53 PM,50.0,35.1,57,30.25,4.0,WNW,9.2,18.4,N/A,,Haze,290,2013-03-18 21:53:00
3:53 PM,50.0,33.1,52,30.25,4.0,Variable,6.9,-,N/A,,Haze,0,2013-03-18 22:53:00
4:53 PM,48.9,33.1,54,30.26,4.0,West,6.9,-,N/A,,Haze,280,2013-03-18 23:53:00
5:53 PM,48.0,30.9,52,30.26,4.0,Variable,5.8,-,N/A,,Haze,0,2013-03-19 00:53:00
6:53 PM,44.1,30.9,60,30.25,4.0,West,4.6,-,N/A,,Haze,280,2013-03-19 01:53:00
7:53 PM,39.0,33.1,79,30.24,5.0,Calm,Calm,-,N/A,,Haze,0,2013-03-19 02:53:00
8:53 PM,37.0,33.1,86,30.24,5.0,Calm,Calm,-,N/A,,Clear,0,2013-03-19 03:53:00
9:53 PM,35.1,30.9,85,30.24,5.0,NE,4.6,-,N/A,,Clear,50,2013-03-19 04:53:00
10:53 PM,34.0,30.0,85,30.23,5.0,ENE,4.6,-,N/A,,Clear,70,2013-03-19 05:53:00
11:53 PM,34.0,30.0,85,30.21,4.0,Calm,Calm,-,N/A,,Clear,0,2013-03-19 06:53:00